This demonstration page uses our WeatherBlox Daily Observations layout. Learn more.

40.92945, -100.16068

Hourly Observations for December 16, 2019

Temp ( °F °C ) Dew Point ( °F °C ) Humidity (%) Winds ( mph kmh ) Pressure ( in mb ) Visibility ( mi km ) Precip ( " mm )
12:15 am 00:15 Cloudy with Mist and Fog 22 -5.8 21 -6.2 97 97 NW 3 6 30.19 1022 5 8.0467 0 0
12:35 am 00:35 Cloudy with Mist and Fog 23 -4.9 23 -5.1 99 99 WNW 8 13 30.19 1022 3 4.82802 0 0
12:55 am 00:55 Cloudy with Mist and Fog 23 -4.8 23 -5 99 99 NW 12 19 30.19 1022 0.75 1.207005 0 0
1:15 am 01:15 Cloudy with Mist and Fog 24 -4.7 23 -4.8 99 99 WNW 10 17 30.18 1022 0.75 1.207005 0 0
1:35 am 01:35 Cloudy with Mist and Fog 23 -4.8 23 -5 99 99 NW 10 17 30.18 1022 0.75 1.207005 0 0
1:55 am 01:55 Cloudy with Freezing Fog 23 -5.1 22 -5.3 99 99 NW 10 17 30.19 1022 0.5 0.80467 0 0
2:15 am 02:15 Cloudy with Mist and Fog 22 -5.3 22 -5.6 98 98 NW 9 15 30.2 1023 0.75 1.207005 0 0
2:35 am 02:35 Cloudy with Mist and Fog 22 -5.4 22 -5.6 99 99 NW 8 13 30.21 1023 0.75 1.207005 0 0
2:55 am 02:55 Cloudy with Mist and Fog 22 -5.7 21 -6.1 97 97 WNW 8 13 30.23 1024 1 1.60934 0 0
3:15 am 03:15 Cloudy with Mist and Fog 22 -5.8 21 -6.2 97 97 NW 9 15 30.24 1024 0.75 1.207005 0 0
3:35 am 03:35 Cloudy with Mist and Fog 22 -5.7 21 -6.1 97 97 NW 8 13 30.25 1024 0.75 1.207005 0 0
3:55 am 03:55 Cloudy with Mist and Fog 22 -5.5 21 -6 96 96 NW 7 11 30.24 1024 0.75 1.207005 0 0
4:15 am 04:15 Cloudy with Mist and Fog 22 -5.5 21 -5.9 97 97 NW 8 13 30.24 1024 0.75 1.207005 0 0
4:35 am 04:35 Cloudy with Mist and Fog 21 -6.1 20 -6.6 96 96 WNW 8 13 30.25 1024 1.25 2.011675 0 0
4:55 am 04:55 Cloudy with Mist and Fog 21 -6 20 -6.5 96 96 WNW 7 11 30.25 1024 1 1.60934 0 0
5:15 am 05:15 Cloudy with Mist and Fog 21 -6 20 -6.5 96 96 NW 6 9 30.25 1024 1 1.60934 0 0
5:35 am 05:35 Cloudy with Mist and Fog 21 -6.1 20 -6.6 96 96 NW 6 9 30.26 1025 0.75 1.207005 0 0
5:55 am 05:55 Cloudy with Mist and Fog 20 -6.6 19 -7.2 96 96 WNW 5 7 30.26 1025 2.5 4.02335 0 0
6:15 am 06:15 Partly Cloudy with Mist and Fog 19 -7 18 -7.6 96 96 WNW 7 11 30.28 1025 4 6.43736 0 0
6:35 am 06:35 Clear 18 -7.6 17 -8.5 93 93 WNW 7 11 30.29 1026 7 11.26538 0 0
6:55 am 06:55 Clear 17 -8.1 16 -9 93 93 WNW 7 11 30.29 1026 10 16.0934 0 0
7:15 am 07:15 Clear 17 -8.6 15 -9.5 93 93 WNW 7 11 30.31 1026 10 16.0934 0 0
7:35 am 07:35 Clear 16 -9.1 14 -10 93 93 WNW 7 11 30.31 1026 10 16.0934 0 0
7:55 am 07:55 Clear 16 -9.1 14 -10 93 93 WNW 7 11 30.32 1027 10 16.0934 0 0
8:15 am 08:15 Sunny 16 -8.8 14 -9.8 93 93 WNW 8 13 30.32 1027 10 16.0934 0 0
8:35 am 08:35 Sunny 16 -8.7 15 -9.7 93 93 WNW 8 13 30.32 1027 10 16.0934 0 0
8:55 am 08:55 Sunny 17 -8.5 15 -9.5 93 93 WNW 8 13 30.33 1027 10 16.0934 0 0
9:15 am 09:15 Sunny 17 -8.5 15 -9.6 92 92 WNW 6 9 30.34 1027 10 16.0934 0 0
9:35 am 09:35 Sunny 17 -8.6 14 -9.8 91 91 WNW 7 11 30.35 1028 10 16.0934 0 0
9:55 am 09:55 Sunny 17 -8.5 15 -9.7 91 91 WNW 8 13 30.36 1028 10 16.0934 0 0
10:15 am 10:15 Sunny 18 -8 15 -9.5 89 89 WNW 8 13 30.36 1028 10 16.0934 0 0
10:35 am 10:35 Sunny 18 -7.7 15 -9.7 86 86 WNW 8 13 30.36 1028 10 16.0934 0 0
10:55 am 10:55 Sunny 19 -7.1 15 -9.3 85 85 WNW 8 13 30.35 1028 10 16.0934 0 0
11:15 am 11:15 Sunny 21 -6.3 16 -8.7 83 83 WNW 7 11 30.34 1027 10 16.0934 0 0
11:35 am 11:35 Sunny 22 -5.6 17 -8.2 82 82 WNW 9 15 30.33 1027 10 16.0934 0 0
11:55 am 11:55 Sunny 23 -5 18 -7.7 82 82 WNW 8 13 30.33 1027 10 16.0934 0 0
12:15 pm 12:15 Sunny 25 -3.9 19 -7 79 79 WNW 9 15 30.32 1027 10 16.0934 0 0
12:35 pm 12:35 Sunny 26 -3.5 20 -6.5 80 80 WNW 8 13 30.3 1026 10 16.0934 0 0
12:55 pm 12:55 Sunny 26 -3.1 21 -6.3 79 79 WNW 8 13 30.3 1026 10 16.0934 0 0
1:15 pm 13:15 Sunny 27 -3 21 -6 80 80 WNW 7 11 30.3 1026 10 16.0934 0 0
1:35 pm 13:35 Sunny 28 -2.4 22 -5.4 80 80 WNW 8 13 30.29 1026 10 16.0934 0 0
1:55 pm 13:55 Sunny 28 -2.1 23 -5.2 80 80 W 8 13 30.29 1026 10 16.0934 0 0
2:15 pm 14:15 Sunny 29 -1.8 23 -5 79 79 WNW 8 13 30.29 1026 10 16.0934 0 0
2:35 pm 14:35 Sunny 29 -1.6 23 -5 78 78 WNW 9 15 30.28 1026 10 16.0934 0 0
2:55 pm 14:55 Sunny 29 -1.7 23 -5 78 78 WNW 9 15 30.28 1026 10 16.0934 0 0
3:15 pm 15:15 Sunny 29 -1.6 23 -4.8 79 79 WNW 9 15 30.28 1026 10 16.0934 0 0
3:35 pm 15:35 Sunny 29 -1.7 23 -4.8 80 80 WNW 7 11 30.29 1026 10 16.0934 0 0
3:55 pm 15:55 Sunny 29 -1.5 24 -4.7 79 79 WNW 5 7 30.3 1026 10 16.0934 0 0
4:15 pm 16:15 Sunny 29 -1.8 23 -4.9 80 80 WNW 8 13 30.31 1026 10 16.0934 0 0
4:35 pm 16:35 Sunny 28 -2.5 23 -5.2 82 82 WNW 6 9 30.32 1027 10 16.0934 0 0
4:55 pm 16:55 Sunny 26 -3.5 22 -5.8 84 84 W 7 11 30.33 1027 10 16.0934 0 0
5:15 pm 17:15 Clear 23 -4.8 20 -6.6 87 87 WNW 8 13 30.36 1028 10 16.0934 0 0
5:35 pm 17:35 Clear 21 -6.2 18 -7.7 89 89 W 7 11 30.37 1028 10 16.0934 0 0
5:55 pm 17:55 Clear 20 -6.9 17 -8.1 91 91 WNW 7 11 30.39 1029 10 16.0934 0 0
6:15 pm 18:15 Clear 20 -6.5 18 -8 89 89 WNW 8 13 30.38 1029 10 16.0934 0 0
6:35 pm 18:35 Clear 21 -6.3 18 -7.7 90 90 WNW 12 19 30.39 1029 10 16.0934 0 0
6:55 pm 18:55 Clear 21 -6.1 18 -7.9 87 87 WNW 10 17 30.4 1029 10 16.0934 0 0
7:15 pm 19:15 Clear 22 -5.7 19 -7.3 89 89 NW 9 15 30.4 1029 10 16.0934 0 0
7:35 pm 19:35 Clear 20 -6.5 18 -8 89 89 WNW 9 15 30.4 1030 10 16.0934 0 0
7:55 pm 19:55 Clear 20 -6.7 17 -8.3 89 89 WNW 6 9 30.42 1030 10 16.0934 0 0
8:15 pm 20:15 Clear 20 -6.9 16 -8.7 87 87 WNW 8 13 30.42 1030 10 16.0934 0 0
8:35 pm 20:35 Clear 18 -7.7 16 -9 91 91 WNW 8 13 30.43 1030 10 16.0934 0 0
8:55 pm 20:55 Clear 19 -7 16 -9 86 86 WNW 15 24 30.42 1030 10 16.0934 0 0
9:15 pm 21:15 Clear 18 -7.7 15 -9.6 86 86 WNW 12 19 30.43 1030 10 16.0934 0 0
9:35 pm 21:35 Clear 18 -7.8 14 -9.8 86 86 WNW 9 15 30.43 1030 10 16.0934 0 0
9:55 pm 21:55 Clear 19 -7.4 15 -9.6 84 84 WNW 14 22 30.43 1031 10 16.0934 0 0
10:15 pm 22:15 Clear 18 -7.9 14 -10.1 84 84 WNW 10 17 30.44 1031 10 16.0934 0 0
10:35 pm 22:35 Clear 17 -8.1 13 -10.5 83 83 WNW 13 20 30.44 1031 10 16.0934 0 0
10:55 pm 22:55 Clear 18 -7.6 14 -10.1 82 82 WNW 15 24 30.44 1031 10 16.0934 0 0
11:15 pm 23:15 Clear 18 -7.8 13 -10.5 81 81 WNW 15 24 30.44 1031 10 16.0934 0 0
11:35 pm 23:35 Clear 17 -8.5 12 -11 82 82 WNW 13 20 30.45 1031 10 16.0934 0 0
11:55 pm 23:55 Clear 16 -8.9 12 -11.1 84 84 WNW 13 20 30.46 1031 10 16.0934 0 0

Powered by AerisWeather